TimeMDT,TemperatureF,Dew PointF,Humidity,Sea Level PressureIn,VisibilityMPH,Wind Direction,Wind SpeedMPH,Gust SpeedMPH,PrecipitationIn,Events,Conditions,WindDirDegrees,DateUTC
12:56 AM,24.1,21.0,88,30.06,10.0,SSE,5.8,-,N/A,,Mostly Cloudy,150,2012-10-25 06:56:00
1:56 AM,25.2,21.0,84,30.05,10.0,Calm,Calm,-,N/A,,Partly Cloudy,0,2012-10-25 07:56:00
2:56 AM,26.1,20.1,78,30.05,10.0,Calm,Calm,-,N/A,,Overcast,0,2012-10-25 08:56:00
3:56 AM,27.1,20.1,75,30.04,10.0,Calm,Calm,-,0.00,,Overcast,0,2012-10-25 09:56:00
4:49 AM,26.6,21.2,80,30.05,6.0,Calm,Calm,-,0.00,Snow,Light Snow,0,2012-10-25 10:49:00
4:56 AM,27.1,22.1,81,30.04,2.5,Calm,Calm,-,0.00,Snow,Light Snow,0,2012-10-25 10:56:00
5:12 AM,26.6,23.0,86,30.06,1.8,Calm,Calm,-,0.00,Snow,Light Snow,0,2012-10-25 11:12:00
5:16 AM,26.6,23.0,86,30.06,1.0,Calm,Calm,-,0.00,Snow,Light Snow,0,2012-10-25 11:16:00
5:20 AM,26.6,23.0,86,30.06,0.8,Calm,Calm,-,0.00,Snow,Light Snow,0,2012-10-25 11:20:00
5:39 AM,26.6,24.8,93,30.06,0.5,ESE,4.6,-,0.00,Fog-Snow,Light Snow,110,2012-10-25 11:39:00
5:56 AM,26.1,24.1,92,30.06,1.2,East,5.8,-,0.00,Snow,Light Snow,90,2012-10-25 11:56:00
6:01 AM,24.8,24.8,100,30.05,2.0,East,6.9,-,0.00,Snow,Light Snow,100,2012-10-25 12:01:00
6:09 AM,26.6,24.8,93,30.05,7.0,East,5.8,-,0.00,Snow,Light Snow,100,2012-10-25 12:09:00
6:23 AM,26.6,24.8,93,30.05,5.0,SSE,6.9,-,0.00,Snow,Light Snow,150,2012-10-25 12:23:00
6:27 AM,26.6,24.8,93,30.05,2.5,SE,5.8,-,0.00,Snow,Light Snow,140,2012-10-25 12:27:00
6:33 AM,26.6,24.8,93,30.05,1.2,SSE,6.9,-,0.00,Snow,Light Snow,150,2012-10-25 12:33:00
6:39 AM,26.6,24.8,93,30.06,2.0,South,6.9,-,0.00,Snow,Light Snow,170,2012-10-25 12:39:00
6:56 AM,26.1,24.1,92,30.07,1.8,South,8.1,-,0.00,Snow,Light Snow,180,2012-10-25 12:56:00
7:01 AM,26.6,24.8,93,30.06,2.0,South,8.1,-,0.00,Snow,Light Snow,190,2012-10-25 13:01:00
7:10 AM,26.6,24.8,93,30.06,3.0,SSW,8.1,-,0.00,Snow,Light Snow,210,2012-10-25 13:10:00
7:56 AM,26.1,24.1,92,30.08,3.0,South,8.1,-,0.00,Snow,Light Snow,170,2012-10-25 13:56:00
8:03 AM,26.6,23.0,86,30.07,3.0,South,9.2,-,0.00,Snow,Light Snow,180,2012-10-25 14:03:00
8:12 AM,26.6,24.8,93,30.07,10.0,South,6.9,-,0.00,,Overcast,190,2012-10-25 14:12:00
8:22 AM,26.6,24.8,93,30.08,10.0,South,8.1,-,0.00,,Overcast,190,2012-10-25 14:22:00
8:41 AM,26.6,24.8,93,30.08,10.0,SSW,9.2,-,0.00,Snow,Light Snow,200,2012-10-25 14:41:00
8:56 AM,27.1,24.1,88,30.11,10.0,SSW,6.9,-,0.00,Snow,Light Snow,200,2012-10-25 14:56:00
9:38 AM,26.6,24.8,93,30.10,10.0,South,6.9,-,0.00,Snow,Light Snow,190,2012-10-25 15:38:00
9:56 AM,27.1,24.1,88,30.12,4.0,South,8.1,-,0.00,Snow,Light Snow,180,2012-10-25 15:56:00
10:02 AM,26.6,24.8,93,30.10,2.5,South,8.1,-,0.00,Snow,Light Snow,170,2012-10-25 16:02:00
10:06 AM,26.6,24.8,93,30.10,1.8,South,6.9,-,0.00,Snow,Light Snow,180,2012-10-25 16:06:00
10:11 AM,26.6,24.8,93,30.10,1.0,South,5.8,-,0.00,Snow,Light Snow,190,2012-10-25 16:11:00
10:19 AM,26.6,24.8,93,30.11,0.5,SSW,8.1,-,0.00,Fog-Snow,Light Snow,200,2012-10-25 16:19:00
10:28 AM,26.6,24.8,93,30.11,0.8,South,8.1,-,0.00,Snow,Light Snow,190,2012-10-25 16:28:00
10:32 AM,26.6,24.8,93,30.11,1.0,SSW,8.1,-,0.00,Snow,Light Snow,200,2012-10-25 16:32:00
10:48 AM,26.6,24.8,93,30.11,0.8,South,8.1,-,0.00,Snow,Light Snow,190,2012-10-25 16:48:00
10:56 AM,27.1,24.1,88,30.14,1.2,South,8.1,-,0.00,Snow,Light Snow,180,2012-10-25 16:56:00
11:08 AM,26.6,24.8,93,30.12,1.0,SSE,8.1,-,0.00,Snow,Light Snow,160,2012-10-25 17:08:00
11:16 AM,26.6,24.8,93,30.12,1.2,SSE,9.2,-,0.00,Snow,Light Snow,160,2012-10-25 17:16:00
11:26 AM,28.4,24.8,86,30.12,2.0,South,10.4,-,0.00,Snow,Light Snow,170,2012-10-25 17:26:00
11:42 AM,28.4,24.8,86,30.13,1.5,South,8.1,-,0.00,Snow,Light Snow,180,2012-10-25 17:42:00
11:45 AM,28.4,24.8,86,30.13,1.0,South,9.2,-,0.00,Snow,Light Snow,180,2012-10-25 17:45:00
11:56 AM,28.0,24.1,85,30.16,0.8,South,9.2,-,0.00,Snow,Light Snow,180,2012-10-25 17:56:00
12:14 PM,26.6,24.8,93,30.13,1.0,South,8.1,-,0.00,Snow,Light Snow,170,2012-10-25 18:14:00
12:31 PM,26.6,24.8,93,30.14,0.8,South,6.9,-,0.00,Snow,Light Snow,180,2012-10-25 18:31:00
12:47 PM,26.6,24.8,93,30.14,1.0,South,6.9,-,0.00,Snow,Light Snow,190,2012-10-25 18:47:00
12:49 PM,26.6,24.8,93,30.14,1.2,SSW,8.1,-,0.00,Snow,Light Snow,200,2012-10-25 18:49:00
12:56 PM,27.1,24.1,88,30.18,2.5,SSW,8.1,-,0.00,Snow,Light Snow,200,2012-10-25 18:56:00
1:05 PM,26.6,24.8,93,30.14,1.0,SSW,8.1,-,0.00,Snow,Light Snow,200,2012-10-25 19:05:00
1:14 PM,26.6,24.8,93,30.15,0.8,WSW,8.1,-,0.00,Snow,Light Snow,240,2012-10-25 19:14:00
1:20 PM,26.6,24.8,93,30.15,1.2,West,5.8,-,0.00,Snow,Light Snow,260,2012-10-25 19:20:00
1:23 PM,26.6,24.8,93,30.15,1.5,West,4.6,-,0.00,Snow,Light Snow,270,2012-10-25 19:23:00
1:25 PM,28.4,24.8,86,30.15,2.0,West,5.8,-,0.00,Snow,Light Snow,270,2012-10-25 19:25:00
1:33 PM,26.6,24.8,93,30.15,5.0,WNW,6.9,-,0.00,Snow,Light Snow,300,2012-10-25 19:33:00
1:44 PM,28.4,24.8,86,30.16,2.0,NW,9.2,-,0.00,Snow,Light Snow,310,2012-10-25 19:44:00
1:47 PM,26.6,24.8,93,30.16,1.2,NW,10.4,-,0.00,Snow,Light Snow,310,2012-10-25 19:47:00
1:58 PM,28.4,24.8,86,30.16,3.0,NW,9.2,-,0.00,Snow,Light Snow,320,2012-10-25 19:58:00
2:56 PM,32.0,23.0,69,30.18,10.0,NNW,6.9,-,0.00,,Mostly Cloudy,330,2012-10-25 20:56:00
3:56 PM,32.0,22.1,67,30.19,10.0,NE,5.8,-,N/A,,Overcast,50,2012-10-25 21:56:00
4:20 PM,30.2,21.2,69,30.20,2.5,NNW,4.6,-,0.01,Snow,Light Snow,340,2012-10-25 22:20:00
4:23 PM,28.4,23.0,80,30.20,1.2,North,9.2,-,0.01,Snow,Light Snow,350,2012-10-25 22:23:00
4:25 PM,28.4,24.8,86,30.21,0.8,North,10.4,-,0.01,Snow,Light Snow,360,2012-10-25 22:25:00
4:31 PM,28.4,24.8,86,30.21,0.5,North,6.9,-,0.01,Fog-Snow,Light Snow,10,2012-10-25 22:31:00
4:34 PM,28.4,24.8,86,30.21,0.5,NNE,4.6,-,0.01,Fog-Snow,Light Snow,30,2012-10-25 22:34:00
4:40 PM,28.4,24.8,86,30.21,1.0,NNE,5.8,-,0.01,Snow,Light Snow,30,2012-10-25 22:40:00
4:42 PM,28.4,24.8,86,30.21,1.5,NNE,6.9,-,0.01,Snow,Light Snow,20,2012-10-25 22:42:00
4:49 PM,28.4,24.8,86,30.21,2.0,NE,8.1,-,0.01,Snow,Light Snow,40,2012-10-25 22:49:00
4:56 PM,28.0,24.1,85,30.24,3.0,NE,8.1,-,0.01,Snow,Light Snow,40,2012-10-25 22:56:00
5:07 PM,28.4,24.8,86,30.22,10.0,NE,5.8,-,0.00,Snow,Light Snow,40,2012-10-25 23:07:00
5:56 PM,22.1,19.0,88,30.30,10.0,ENE,5.8,-,0.00,,Mostly Cloudy,70,2012-10-25 23:56:00
6:20 PM,26.6,23.0,86,30.24,5.0,ENE,5.8,-,0.00,Snow,Light Snow,60,2012-10-26 00:20:00
6:27 PM,26.6,23.0,86,30.25,2.5,NE,5.8,-,0.00,Snow,Light Snow,50,2012-10-26 00:27:00
6:32 PM,26.6,23.0,86,30.25,1.8,NE,4.6,-,0.00,Snow,Light Snow,40,2012-10-26 00:32:00
6:39 PM,26.6,24.8,93,30.25,1.5,NE,4.6,-,0.00,Snow,Light Snow,40,2012-10-26 00:39:00
6:49 PM,26.6,24.8,93,30.26,3.0,North,3.5,-,0.00,Snow,Light Snow,10,2012-10-26 00:49:00
6:56 PM,27.1,24.1,88,30.30,2.5,NNE,3.5,-,0.00,Snow,Light Snow,20,2012-10-26 00:56:00
7:03 PM,26.6,24.8,93,30.26,1.2,North,3.5,-,0.00,Snow,Light Snow,360,2012-10-26 01:03:00
7:17 PM,26.6,24.8,93,30.27,1.8,NNE,4.6,-,0.00,Snow,Light Snow,30,2012-10-26 01:17:00
7:30 PM,26.6,24.8,93,30.28,3.0,NE,3.5,-,0.00,Snow,Light Snow,50,2012-10-26 01:30:00
7:43 PM,26.6,24.8,93,30.28,1.8,Calm,Calm,-,0.00,Snow,Light Snow,0,2012-10-26 01:43:00
7:56 PM,27.1,24.1,88,30.32,0.8,ENE,3.5,-,0.00,Snow,Light Snow,60,2012-10-26 01:56:00
7:58 PM,26.6,24.8,93,30.29,0.5,ENE,3.5,-,0.00,Fog-Snow,Snow,70,2012-10-26 01:58:00
8:09 PM,26.6,24.8,93,30.29,0.2,ENE,3.5,-,0.00,Fog-Snow,Snow,60,2012-10-26 02:09:00
8:18 PM,26.6,24.8,93,30.29,0.5,NE,4.6,-,0.00,Fog-Snow,Snow,40,2012-10-26 02:18:00
8:28 PM,26.6,24.8,93,30.29,0.2,ENE,6.9,-,0.00,Fog-Snow,Snow,60,2012-10-26 02:28:00
8:37 PM,26.6,24.8,93,30.29,0.8,East,8.1,-,0.00,Snow,Light Snow,80,2012-10-26 02:37:00
8:41 PM,26.6,24.8,93,30.29,1.5,East,6.9,-,0.00,Snow,Light Snow,80,2012-10-26 02:41:00
8:48 PM,26.6,24.8,93,30.29,2.0,ENE,5.8,-,0.00,Snow,Light Snow,60,2012-10-26 02:48:00
8:56 PM,26.1,25.2,96,30.33,0.5,NE,4.6,-,0.00,Fog-Snow,Snow,50,2012-10-26 02:56:00
9:11 PM,26.6,24.8,93,30.31,1.0,NE,3.5,-,0.00,Snow,Light Snow,40,2012-10-26 03:11:00
9:17 PM,26.6,24.8,93,30.31,3.0,NNE,4.6,-,0.00,Snow,Light Snow,30,2012-10-26 03:17:00
9:30 PM,26.6,24.8,93,30.31,10.0,NE,3.5,-,0.00,,Overcast,50,2012-10-26 03:30:00
9:56 PM,25.2,24.1,96,30.37,10.0,ENE,4.6,-,0.00,,Overcast,60,2012-10-26 03:56:00
10:02 PM,24.8,23.0,93,30.32,10.0,ENE,3.5,-,N/A,,Overcast,70,2012-10-26 04:02:00
10:56 PM,24.1,21.0,88,30.37,10.0,East,4.6,-,N/A,,Overcast,80,2012-10-26 04:56:00
11:59 PM,23.0,21.2,93,30.34,1.8,SW,3.5,-,N/A,,Overcast,230,2012-10-26 05:59:00